Location: Byhalia Creek
(34.8270°N, 89.8040°W)
Time: 09:04:05
(UTC+00:00)

Cosmos 1674 Rocket - Pass Details

Date: 22 April 2026
Orbit: 596 x 622 km, 82.5° (Epoch: 14 May)

Event Time Altitude Azimuth Distance (km) Brightness Sun altitude
Rises 02:51:46 0° 345° (NNW) 2,863 7.8 -25.6°
Reaches altitude 10° 02:54:02 10° 339° (NNW) 1,959 6.9 -25.9°
Maximum altitude 02:58:10 44° 267° (W) 841 4.4 -26.6°
Enters shadow 02:58:35 43° 250° (WSW) 860 4.4 -26.7°
